map of CAN home
CAN - Airport
Location
City:  Guangzhou, Guangdong, China
Near (Alt.):Canton
Name:Baiyun
ICAO:ZGGG
IATA:CAN

Details
Type:Airport (Aerodrome, Airfield)
Use:Public/Civil, International (customs port of entry)
Latitude:2324'N (23.393)
Longitude:11318'E (113.308)
Elevation:49 ft (15 m)
Variation:2.95W (WMM2015 magnetic declination)
-0.06 annual change
Runways:3
Longest:12467 × 197 ft (3800 × 60 m), paved

Time
Time Zone:UTC+8
Local Time:

Weather
METAR:ZGGG 190530Z 10002MPS 070V150 9999 SCT033 32/25 Q1001 TEMPO TSRA

Related Locations
Nearby:
Farthest:SCPE: 12346 mi / 19868 km
San Pedro de Atacama, AN, CL

Find:

   beyond  
but within

Other Information
Maps:
NOTAMs:
Links:
Sources:

  
  • flag of China
  

Sectional Chart

Flight Planning
at skyvector.com

Satellite Image

Google Maps Satellite view

 

Copyright © 2004-2018 Karl L. Swartz. All rights reserved.
The Great Circle Mapper name and logo are trademarks of the Great Circle Mapper.
All other trademarks mentioned herein belong to their respective owners.
Please see credits for attibutions and further copyright information.

  Follow gcmap on Facebook Follow gcmap on Twitter Follow gcmap on Google+ GCmap on LinkedIn

hCard Microformat

Geo Microformat